Location: Kearney
(40.6990°N, 99.0810°W)
Time: 09:00:04
(UTC-05:00)

Cosmos 1666 - Pass Details

Date: 18 December 2017
Orbit: 499 x 525 km, 82.5° (Epoch: 23 April)

Event Time Altitude Azimuth Distance (km) Brightness Sun altitude
Rises 17:44:03 0° 351° (N) 2,601 6.1 -6.4°
Reaches altitude 10° 17:46:10 10° 351° (N) 1,711 5.2 -6.7°
Maximum altitude 17:49:55 84° 263° (W) 507 2.7 -7.4°
Drops below altitude 10° 17:53:38 10° 176° (S) 1,696 5.6 -8.0°
Sets 17:55:44 0° 175° (S) 2,576 6.5 -8.4°
